Vorticity
7 7 8 3 5 5 7 4 7 8 7 7 8 9 8 7 0 6 7 5 2 2 10 8 8 4 4 4 26 14 5 4 -1 -2 -3 -0 1 33 -2 3 13 9 11 16 7
4 7 4 -2 3 4 5 3 6 5 8 7 5 9 9 6 2 8 7 6 3 17 11 8 7 4 3 4 32 12 8 5 -2 12 6 -3 -4 10 14 7 -7 11 11 22 12
4 5 5 4 5 6 6 5 5 6 8 6 6 9 10 10 5 10 7 10 1 13 10 5 6 4 4 4 32 7 1 4 12 -0 -1 23 25 -13 30 22 4 3 11 4 26
6 5 4 6 6 11 7 6 5 5 6 7 5 6 7 3 7 5 8 -5 14 7 6 6 5 5 5 3 17 9 9 4 8 23 7 22 13 8 2 3 8 11 14 14 3
3 5 8 6 2 2 10 6 4 5 5 6 5 4 8 9 5 12 5 6 16 4 4 6 5 3 5 5 12 15 16 15 12 13 13 15 9 6 4 3 11 17 15 20 14
1 8 7 7 5 7 4 9 7 6 6 6 3 3 6 15 5 11 19 8 10 4 2 3 5 3 6 4 11 21 13 10 -5 -5 7 6 2 35 46 13 3 6 10 37 19
0 -9 2 8 5 8 9 3 8 7 6 6 4 4 3 7 6 7 10 4 2 12 3 1 2 4 5 3 7 19 15 -3 7 7 -2 24 -0 24 -0 13 -3 5 12 21 41
17 13 2 -9 4 6 7 11 5 5 6 6 6 5 8 3 6 6 8 9 10 21 2 -1 3 4 5 5 6 25 17 -13 6 -1 -5 2 -5 19 -19 6 17 16 14 36 34
20 19 7 11 4 9 6 8 9 10 2 2 3 5 8 5 5 6 12 8 6 14 10 8 5 5 7 4 5 25 -2 19 -1 2 -1 34 9 0 5 2 15 10 5 10 6
8 14 13 21 12 5 6 10 10 4 9 6 -0 3 5 3 5 6 8 4 4 7 12 14 5 6 6 4 13 11 12 0 5 7 -1 4 15 -2 8 7 9 15 3 6 -1
2 11 10 6 7 10 17 10 8 12 7 11 10 8 9 8 6 1 5 7 2 6 -1 11 13 9 3 4 4 11 24 5 13 -0 1 15 9 16 1 -3 -1 9 18 7 4
5 6 7 4 6 6 7 7 20 19 -1 7 11 11 10 8 10 4 4 7 7 7 1 4 20 2 1 7 4 7 20 5 -6 9 -3 7 11 3 3 8 -5 11 10 9 10
2 9 5 7 7 6 3 4 7 8 19 5 9 10 16 5 8 8 7 6 7 5 5 4 11 0 2 5 5 9 16 13 -14 9 -6 -6 1 -2 1 5 7 10 10 9 6
9 6 8 7 8 6 6 5 5 4 16 -5 9 8 7 14 9 10 10 10 4 7 6 5 3 8 3 11 4 8 13 27 -7 10 0 -7 2 7 7 -2 10 -9 20 10 9
7 7 7 9 11 10 8 6 6 8 16 7 16 5 7 6 8 12 9 5 8 7 5 9 9 8 7 7 3 8 15 20 17 10 18 11 -5 -5 12 4 8 2 1 11 11
6 8 7 8 17 3 8 7 8 6 12 -1 2 5 -1 14 12 10 10 10 11 2 1 3 4 1 8 3 5 5 12 10 1 5 12 22 4 -0 11 11 -16 29 6 2 9
12 10 9 5 12 14 12 9 8 3 1 6 7 3 -1 3 -1 10 17 9 9 8 7 9 6 11 10 9 7 5 7 10 9 10 20 8 7 17 -2 0 -4 1 3 6 6
20 21 16 14 13 16 14 13 -6 4 3 7 2 4 1 12 4 7 6 11 10 10 6 5 7 12 17 14 10 6 7 3 3 10 9 9 2 0 18 4 -4 12 5 5 -2
15 15 21 21 20 23 19 -0 11 7 6 21 9 7 9 3 8 14 3 4 2 13 13 9 9 11 8 15 3 7 7 11 2 8 15 -5 26 4 -6 10 2 2 -2 1 2
12 13 8 6 5 6 16 14 19 19 20 15 12 -10 22 23 25 21 11 9 8 6 17 12 8 10 3 9 6 12 5 3 5 0 5 13 -7 1 3 -8 6 13 11 15 3
12 15 10 16 12 1 12 46 42 28 17 8 8 48 -2 -4 26 9 16 2 9 2 16 14 6 11 5 5 0 6 7 4 2 2 1 1 10 -3 6 -1 5 -7 18 -13 5
10 14 3 7 14 13 7 0 -1 14 35 26 15 17 22 4 4 18 3 7 7 10 11 20 14 7 6 4 16 10 5 11 3 3 8 -1 9 -7 2 8 8 8 -2 8 6
10 6 7 8 6 2 11 18 15 7 3 12 41 18 1 35 -3 -3 0 6 -8 -1 12 16 11 8 3 9 -2 8 2 -6 8 17 -2 8 0 14 2 27 -8 4 9 3 7
5 2 5 8 5 1 4 2 4 10 7 11 6 52 28 -8 15 6 22 21 10 -3 17 3 18 6 10 18 13 6 1 4 6 10 17 -1 1 9 12 -18 -0 17 -3 -10 11
2 4 3 3 5 8 4 -1 7 1 7 2 11 5 64 17 7 10 3 12 23 14 11 5 -3 10 6 11 11 -5 12 5 7 30 10 4 10 22 7 18 17 10 -18 9 29
3 6 1 3 3 10 11 8 4 6 6 4 4 19 16 31 6 -7 10 -9 -15 23 11 -0 4 8 5 4 13 0 -10 10 -4 -4 10 9 40 13 9 12 12 19 24 11 10
0 6 4 8 8 10 11 12 14 4 7 5 -1 3 3 9 57 7 -12 -23 28 -7 26 2 9 -1 3 12 15 -9 25 -3 -5 -0 1 13 6 28 12 17 0 5 0 6 8
Height
5791 5794 5796 5797 5798 5798 5800 5801 5803 5804 5804 5804 5805 5805 5804 5805 5804 5806 5805 5804 5802 5801 5799 5797 5796 5793 5790 5787 5783 5779 5776 5774 5772 5775 5771 5765 5765 5770 5762 5758 5756 5759 5760 5759 5762
5782 5784 5787 5788 5789 5790 5792 5793 5795 5796 5797 5798 5798 5798 5798 5799 5799 5801 5801 5800 5798 5796 5794 5794 5793 5789 5788 5785 5780 5776 5774 5771 5770 5772 5770 5766 5763 5761 5763 5759 5757 5755 5756 5758 5758
5772 5774 5776 5779 5780 5782 5783 5785 5787 5789 5790 5791 5792 5792 5792 5793 5795 5798 5794 5795 5794 5792 5791 5790 5789 5786 5783 5782 5778 5773 5771 5768 5770 5768 5766 5767 5760 5762 5760 5756 5753 5755 5755 5754 5756
5761 5764 5766 5768 5771 5773 5775 5776 5779 5781 5784 5785 5784 5786 5786 5788 5790 5792 5790 5790 5789 5788 5787 5786 5786 5782 5779 5776 5773 5769 5769 5767 5767 5767 5766 5762 5759 5759 5757 5755 5755 5754 5750 5752 5752
5751 5754 5756 5759 5761 5764 5766 5768 5770 5773 5775 5777 5778 5778 5780 5783 5783 5787 5785 5785 5784 5784 5783 5783 5782 5780 5777 5774 5770 5767 5767 5765 5765 5764 5764 5763 5761 5761 5758 5756 5753 5749 5746 5742 5742
5740 5743 5745 5748 5751 5754 5757 5759 5762 5764 5767 5769 5771 5771 5775 5780 5774 5779 5778 5779 5779 5780 5780 5779 5778 5777 5776 5771 5768 5765 5764 5764 5764 5764 5763 5763 5758 5756 5755 5756 5751 5746 5739 5734 5732
5728 5731 5734 5737 5741 5743 5747 5750 5753 5755 5758 5761 5762 5765 5769 5772 5769 5774 5774 5772 5773 5774 5775 5775 5774 5774 5771 5769 5766 5764 5764 5764 5764 5762 5763 5761 5760 5758 5755 5753 5753 5743 5735 5730 5728
5714 5719 5723 5727 5730 5733 5736 5740 5743 5747 5749 5752 5754 5757 5765 5760 5763 5767 5767 5767 5767 5768 5770 5770 5770 5770 5769 5767 5763 5762 5763 5763 5760 5760 5762 5763 5760 5758 5755 5754 5750 5742 5734 5732 5729
5701 5706 5710 5714 5719 5722 5725 5729 5732 5736 5739 5743 5746 5749 5757 5755 5758 5759 5762 5762 5762 5763 5764 5765 5766 5766 5766 5764 5761 5760 5759 5760 5756 5757 5759 5761 5759 5758 5752 5753 5750 5743 5738 5739 5736
5688 5693 5697 5702 5707 5710 5714 5718 5719 5725 5727 5734 5737 5744 5746 5749 5750 5754 5755 5755 5756 5758 5759 5760 5760 5760 5762 5761 5760 5758 5756 5756 5757 5758 5755 5757 5758 5757 5752 5753 5752 5745 5744 5743 5742
5680 5684 5687 5690 5697 5699 5702 5707 5710 5714 5719 5725 5727 5732 5737 5739 5743 5744 5748 5749 5750 5752 5754 5753 5756 5756 5757 5757 5757 5754 5752 5754 5756 5756 5753 5752 5754 5756 5754 5751 5751 5748 5748 5745 5745
5671 5676 5679 5683 5686 5690 5693 5697 5697 5703 5710 5714 5717 5724 5728 5731 5734 5737 5740 5743 5744 5748 5745 5749 5753 5750 5752 5753 5753 5750 5748 5752 5752 5748 5751 5752 5748 5750 5753 5753 5751 5749 5746 5746 5748
5661 5665 5669 5673 5676 5680 5684 5687 5688 5692 5698 5711 5712 5714 5722 5716 5726 5728 5732 5736 5739 5738 5742 5743 5748 5744 5746 5747 5748 5748 5746 5749 5750 5747 5750 5749 5748 5745 5749 5751 5750 5749 5747 5746 5746
5649 5652 5657 5661 5666 5667 5671 5676 5680 5684 5689 5700 5704 5706 5711 5713 5713 5722 5724 5730 5729 5733 5734 5735 5739 5739 5741 5742 5742 5744 5743 5743 5743 5745 5746 5747 5747 5743 5742 5745 5747 5748 5748 5748 5747
5633 5637 5642 5647 5651 5654 5661 5665 5672 5678 5680 5687 5693 5696 5702 5704 5709 5713 5715 5717 5722 5728 5727 5734 5733 5733 5735 5738 5738 5741 5740 5740 5741 5743 5743 5745 5744 5741 5739 5739 5743 5746 5747 5748 5749
5616 5621 5626 5631 5634 5639 5645 5652 5659 5668 5673 5677 5680 5688 5692 5697 5699 5704 5705 5710 5716 5715 5717 5723 5725 5726 5731 5733 5734 5736 5736 5737 5738 5738 5737 5743 5741 5740 5737 5738 5738 5739 5744 5740 5745
5599 5603 5609 5616 5616 5625 5631 5638 5648 5656 5664 5669 5671 5674 5683 5688 5693 5694 5699 5701 5706 5708 5712 5717 5720 5720 5724 5726 5730 5730 5731 5732 5734 5733 5735 5734 5736 5739 5739 5739 5735 5742 5741 5740 5738
5583 5586 5593 5599 5599 5608 5614 5623 5632 5652 5656 5657 5660 5661 5666 5677 5683 5687 5690 5693 5696 5702 5705 5707 5713 5716 5720 5721 5725 5726 5728 5728 5729 5730 5731 5732 5733 5736 5735 5737 5736 5735 5735 5736 5736
5567 5573 5580 5586 5586 5592 5597 5603 5633 5636 5642 5646 5647 5650 5655 5662 5672 5677 5682 5687 5689 5694 5697 5701 5705 5711 5712 5715 5718 5722 5721 5726 5724 5724 5727 5730 5730 5731 5730 5733 5733 5732 5730 5729 5733
5555 5560 5570 5573 5574 5579 5580 5602 5617 5622 5625 5624 5629 5638 5645 5650 5658 5665 5671 5677 5682 5686 5690 5694 5697 5702 5706 5709 5712 5714 5720 5718 5718 5718 5722 5726 5725 5727 5727 5726 5727 5729 5731 5731 5730
5543 5549 5561 5560 5563 5566 5580 5597 5599 5602 5608 5611 5621 5629 5632 5636 5642 5650 5660 5669 5672 5678 5683 5687 5689 5694 5697 5698 5703 5708 5709 5713 5713 5714 5716 5721 5722 5721 5723 5725 5725 5726 5727 5728 5729
5533 5540 5547 5548 5555 5565 5579 5588 5591 5591 5592 5596 5607 5614 5623 5631 5634 5637 5644 5654 5663 5668 5673 5679 5680 5682 5688 5691 5697 5701 5704 5708 5708 5712 5710 5713 5717 5718 5721 5722 5722 5723 5720 5720 5724
5522 5530 5534 5539 5551 5562 5572 5576 5578 5579 5581 5585 5587 5598 5615 5621 5624 5628 5634 5643 5648 5652 5661 5670 5669 5673 5681 5685 5686 5689 5694 5700 5702 5704 5704 5706 5712 5714 5711 5714 5713 5713 5715 5714 5717
5511 5516 5523 5530 5544 5552 5559 5565 5569 5572 5576 5581 5585 5588 5596 5604 5611 5620 5628 5632 5635 5641 5649 5654 5660 5664 5669 5679 5682 5685 5689 5693 5694 5693 5697 5696 5703 5710 5708 5708 5709 5708 5710 5710 5708
5495 5506 5513 5524 5535 5540 5547 5556 5562 5567 5570 5571 5578 5583 5591 5595 5605 5611 5620 5622 5630 5636 5639 5640 5646 5654 5660 5668 5674 5677 5681 5685 5685 5689 5689 5695 5694 5700 5702 5704 5703 5702 5704 5704 5701
5480 5494 5502 5513 5517 5526 5533 5547 5554 5561 5561 5564 5571 5579 5582 5585 5596 5609 5610 5614 5619 5628 5631 5634 5640 5642 5648 5655 5663 5667 5670 5674 5678 5680 5681 5685 5686 5691 5695 5694 5694 5695 5693 5694 5697
5468 5482 5486 5495 5503 5513 5529 5542 5548 5544 5551 5554 5564 5567 5572 5582 5587 5596 5595 5601 5609 5619 5623 5628 5635 5636 5640 5649 5655 5654 5659 5664 5668 5672 5675 5676 5681 5685 5685 5685 5685 5687 5686 5686 5688